Location: Campo Alegre
(10.1673°N, 67.4431°W)
Time: 13:12:22
(UTC+00:00)

IUS-13 SRM-1 - Pass Details

Date: 14 April 2024
Orbit: 245 x 21466 km, 26.9° (Epoch: 29 May)

Event Time Altitude Azimuth Distance (km) Brightness Sun altitude
Exits shadow 09:44:22 - 302° (WNW) 1,086 3.4 -9.3°
Reaches altitude 10° 09:44:28 10° 302° (WNW) 1,029 3.3 -9.3°
Maximum altitude 09:46:15 66° 25° (NNE) 267 0.9 -8.9°
Drops below altitude 10° 09:48:19 10° 111° (ESE) 1,185 5.0 -8.4°
Sets 09:50:53 0° 114° (ESE) 2,584 6.8 -7.8°
